Time,TemperatureF,DewpointF,PressureIn,WindDirection,WindDirectionDegrees,WindSpeedMPH,WindSpeedGustMPH,Humidity,HourlyPrecipIn,Conditions,Clouds,dailyrainin,SoftwareType,DateUTC
2013-05-27 00:01:00,53.7,49.9,30.20,ENE,68,0.0,0.0,87,0.00,,---,0.00,VWS V14.00,2013-05-27 04:01:00,
2013-05-27 00:06:00,53.4,49.6,30.21,ENE,68,0.0,0.0,87,0.00,,---,0.00,VWS V14.00,2013-05-27 04:06:00,
2013-05-27 00:11:00,53.4,49.9,30.21,ENE,68,0.0,0.0,88,0.00,,---,0.00,VWS V14.00,2013-05-27 04:11:00,
2013-05-27 00:16:00,53.2,49.7,30.21,ENE,68,0.0,0.0,88,0.00,,---,0.00,VWS V14.00,2013-05-27 04:16:00,
2013-05-27 00:21:00,53.2,49.7,30.21,ENE,68,0.0,0.0,88,0.00,,---,0.00,VWS V14.00,2013-05-27 04:21:00,
2013-05-27 00:26:00,52.8,49.7,30.21,ENE,68,0.0,0.0,89,0.00,,---,0.00,VWS V14.00,2013-05-27 04:26:00,
2013-05-27 00:31:00,52.8,49.7,30.21,ENE,68,0.0,0.0,89,0.00,,---,0.00,VWS V14.00,2013-05-27 04:31:00,
2013-05-27 00:37:00,52.7,49.5,30.21,ENE,68,0.0,0.0,89,0.00,,---,0.00,VWS V14.00,2013-05-27 04:37:00,
2013-05-27 00:41:00,52.7,49.5,30.21,ENE,68,0.0,0.0,89,0.00,,---,0.00,VWS V14.00,2013-05-27 04:41:00,
2013-05-27 00:46:00,52.5,49.4,30.21,ENE,68,0.0,0.0,89,0.00,,---,0.00,VWS V14.00,2013-05-27 04:46:00,
2013-05-27 00:51:00,52.5,49.4,30.21,ENE,68,0.0,0.0,89,0.00,,---,0.00,VWS V14.00,2013-05-27 04:51:00,
2013-05-27 00:56:00,52.3,49.5,30.21,ENE,68,0.0,0.0,90,0.00,,---,0.00,VWS V14.00,2013-05-27 04:56:00,
2013-05-27 01:02:00,52.1,49.3,30.21,ENE,68,0.0,0.0,90,0.00,,---,0.00,VWS V14.00,2013-05-27 05:02:00,
2013-05-27 01:07:00,52.1,49.3,30.21,ENE,68,0.0,0.0,90,0.00,,---,0.00,VWS V14.00,2013-05-27 05:07:00,
2013-05-27 01:12:00,51.9,49.4,30.21,ENE,68,0.0,0.0,91,0.00,,---,0.00,VWS V14.00,2013-05-27 05:12:00,
2013-05-27 01:17:00,51.9,49.4,30.21,ENE,68,0.0,0.0,91,0.00,,---,0.00,VWS V14.00,2013-05-27 05:17:00,
2013-05-27 01:22:00,51.8,49.3,30.21,ENE,68,0.0,0.0,91,0.00,,---,0.00,VWS V14.00,2013-05-27 05:22:00,
2013-05-27 01:27:00,51.8,49.3,30.21,ENE,68,0.0,0.0,91,0.00,,---,0.00,VWS V14.00,2013-05-27 05:27:00,
2013-05-27 01:32:00,51.6,49.4,30.21,ENE,68,0.0,0.0,92,0.00,,---,0.00,VWS V14.00,2013-05-27 05:32:00,
2013-05-27 01:37:00,51.6,49.4,30.21,ENE,68,0.0,0.0,92,0.00,,---,0.00,VWS V14.00,2013-05-27 05:37:00,
2013-05-27 01:42:00,51.6,49.4,30.21,ENE,68,0.0,0.0,92,0.00,,---,0.00,VWS V14.00,2013-05-27 05:42:00,
2013-05-27 01:47:00,51.4,49.2,30.21,ENE,68,0.0,0.0,92,0.00,,---,0.00,VWS V14.00,2013-05-27 05:47:00,
2013-05-27 01:52:00,51.4,49.2,30.21,ENE,68,0.0,0.0,92,0.00,,---,0.00,VWS V14.00,2013-05-27 05:52:00,
2013-05-27 01:57:00,51.2,49.0,30.21,ENE,68,0.0,0.0,92,0.00,,---,0.00,VWS V14.00,2013-05-27 05:57:00,
2013-05-27 02:02:00,51.0,48.8,30.21,ENE,68,0.0,0.0,92,0.00,,---,0.00,VWS V14.00,2013-05-27 06:02:00,
2013-05-27 02:07:00,51.0,48.8,30.21,ENE,68,0.0,0.0,92,0.00,,---,0.00,VWS V14.00,2013-05-27 06:07:00,
2013-05-27 02:12:00,50.9,48.7,30.20,ENE,68,0.0,0.0,92,0.00,,---,0.00,VWS V14.00,2013-05-27 06:12:00,
2013-05-27 02:17:00,50.9,49.0,30.21,ENE,68,0.0,0.0,93,0.00,,---,0.00,VWS V14.00,2013-05-27 06:17:00,
2013-05-27 02:22:00,50.9,49.0,30.20,ENE,68,0.0,0.0,93,0.00,,---,0.00,VWS V14.00,2013-05-27 06:22:00,
2013-05-27 02:27:00,50.7,48.8,30.20,ENE,68,0.0,0.0,93,0.00,,---,0.00,VWS V14.00,2013-05-27 06:27:00,
2013-05-27 02:32:00,50.7,48.8,30.20,ENE,68,0.0,0.0,93,0.00,,---,0.00,VWS V14.00,2013-05-27 06:32:00,
2013-05-27 02:37:00,50.5,48.6,30.20,ENE,68,0.0,0.0,93,0.00,,---,0.00,VWS V14.00,2013-05-27 06:37:00,
2013-05-27 02:42:00,50.5,48.6,30.20,ENE,68,0.0,0.0,93,0.00,,---,0.00,VWS V14.00,2013-05-27 06:42:00,
2013-05-27 02:47:00,50.3,48.6,30.20,ENE,68,0.0,0.0,94,0.00,,---,0.00,VWS V14.00,2013-05-27 06:47:00,
2013-05-27 02:52:00,50.3,48.6,30.20,ENE,68,0.0,0.0,94,0.00,,---,0.00,VWS V14.00,2013-05-27 06:52:00,
2013-05-27 02:57:00,50.1,48.4,30.20,ENE,68,0.0,0.0,94,0.00,,---,0.00,VWS V14.00,2013-05-27 06:57:00,
2013-05-27 03:02:00,50.1,48.4,30.20,ENE,68,0.0,0.0,94,0.00,,---,0.00,VWS V14.00,2013-05-27 07:02:00,
2013-05-27 03:07:00,50.1,48.7,30.20,ENE,68,0.0,0.0,95,0.00,,---,0.00,VWS V14.00,2013-05-27 07:07:00,
2013-05-27 03:12:00,50.0,48.6,30.20,ENE,68,0.0,0.0,95,0.00,,---,0.00,VWS V14.00,2013-05-27 07:12:00,
2013-05-27 03:17:00,49.8,48.4,30.20,ENE,68,0.0,0.0,95,0.00,,---,0.00,VWS V14.00,2013-05-27 07:17:00,
2013-05-27 03:22:00,49.8,48.4,30.20,ENE,68,0.0,0.0,95,0.00,,---,0.00,VWS V14.00,2013-05-27 07:22:00,
2013-05-27 03:27:00,49.8,48.4,30.20,ENE,68,0.0,0.0,95,0.00,,---,0.00,VWS V14.00,2013-05-27 07:27:00,
2013-05-27 03:32:00,49.6,48.2,30.20,ENE,68,0.0,0.0,95,0.00,,---,0.00,VWS V14.00,2013-05-27 07:32:00,
2013-05-27 03:37:00,49.6,48.2,30.20,ENE,68,0.0,0.0,95,0.00,,---,0.00,VWS V14.00,2013-05-27 07:37:00,
2013-05-27 03:42:00,49.6,48.2,30.20,ENE,68,0.0,0.0,95,0.00,,---,0.00,VWS V14.00,2013-05-27 07:42:00,
2013-05-27 03:47:00,49.4,48.0,30.20,ENE,68,0.0,0.0,95,0.00,,---,0.00,VWS V14.00,2013-05-27 07:47:00,
2013-05-27 03:52:00,49.2,47.8,30.20,ENE,68,0.0,0.0,95,0.00,,---,0.00,VWS V14.00,2013-05-27 07:52:00,
2013-05-27 03:57:00,49.2,47.8,30.21,ENE,68,0.0,0.0,95,0.00,,---,0.00,VWS V14.00,2013-05-27 07:57:00,
2013-05-27 04:02:00,49.2,47.8,30.20,ENE,68,0.0,0.0,95,0.00,,---,0.00,VWS V14.00,2013-05-27 08:02:00,
2013-05-27 04:07:00,49.1,47.7,30.21,ENE,68,0.0,0.0,95,0.00,,---,0.00,VWS V14.00,2013-05-27 08:07:00,
2013-05-27 04:12:00,49.1,48.0,30.21,ENE,68,0.0,0.0,96,0.00,,---,0.00,VWS V14.00,2013-05-27 08:12:00,
2013-05-27 04:17:00,48.9,47.8,30.21,ENE,68,0.0,0.0,96,0.00,,---,0.00,VWS V14.00,2013-05-27 08:17:00,
2013-05-27 04:22:00,48.9,47.8,30.21,ENE,68,0.0,0.0,96,0.00,,---,0.00,VWS V14.00,2013-05-27 08:22:00,
2013-05-27 04:27:00,48.9,47.8,30.21,ENE,68,0.0,0.0,96,0.00,,---,0.00,VWS V14.00,2013-05-27 08:27:00,
2013-05-27 04:32:00,48.7,47.6,30.21,ENE,68,0.0,0.0,96,0.00,,---,0.00,VWS V14.00,2013-05-27 08:32:00,
2013-05-27 04:37:00,48.7,47.6,30.21,ENE,68,0.0,0.0,96,0.00,,---,0.00,VWS V14.00,2013-05-27 08:37:00,
2013-05-27 04:42:00,48.7,47.6,30.21,ENE,68,0.0,0.0,96,0.00,,---,0.00,VWS V14.00,2013-05-27 08:42:00,
2013-05-27 04:47:00,48.7,47.6,30.21,ENE,68,0.0,0.0,96,0.00,,---,0.00,VWS V14.00,2013-05-27 08:47:00,
2013-05-27 04:52:00,48.7,47.6,30.21,ENE,68,0.0,0.0,96,0.00,,---,0.00,VWS V14.00,2013-05-27 08:52:00,
2013-05-27 04:57:00,48.5,47.4,30.21,ENE,68,0.0,0.0,96,0.00,,---,0.00,VWS V14.00,2013-05-27 08:57:00,
2013-05-27 05:02:00,48.5,47.4,30.21,ENE,68,0.0,0.0,96,0.00,,---,0.00,VWS V14.00,2013-05-27 09:02:00,
2013-05-27 05:07:00,48.3,47.2,30.21,ENE,68,0.0,0.0,96,0.00,,---,0.00,VWS V14.00,2013-05-27 09:07:00,
2013-05-27 05:12:00,48.3,47.5,30.22,ENE,68,0.0,0.0,97,0.00,,---,0.00,VWS V14.00,2013-05-27 09:12:00,
2013-05-27 05:17:00,48.3,47.5,30.21,ENE,68,0.0,0.0,97,0.00,,---,0.00,VWS V14.00,2013-05-27 09:17:00,
2013-05-27 05:22:00,48.3,47.5,30.22,ENE,68,0.0,0.0,97,0.00,,---,0.00,VWS V14.00,2013-05-27 09:22:00,
2013-05-27 05:27:00,48.3,47.5,30.22,ENE,68,0.0,0.0,97,0.00,,---,0.00,VWS V14.00,2013-05-27 09:27:00,
2013-05-27 05:32:00,48.2,47.4,30.22,ENE,68,0.0,0.0,97,0.00,,---,0.00,VWS V14.00,2013-05-27 09:32:00,
2013-05-27 05:37:00,48.2,47.4,30.22,ENE,68,0.0,0.0,97,0.00,,---,0.00,VWS V14.00,2013-05-27 09:37:00,
2013-05-27 05:42:00,48.0,47.2,30.22,ENE,68,0.0,0.0,97,0.00,,---,0.00,VWS V14.00,2013-05-27 09:42:00,
2013-05-27 05:47:00,48.0,47.2,30.22,ENE,68,0.0,0.0,97,0.00,,---,0.00,VWS V14.00,2013-05-27 09:47:00,
2013-05-27 05:52:00,48.0,47.2,30.22,ENE,68,0.0,0.0,97,0.00,,---,0.00,VWS V14.00,2013-05-27 09:52:00,
2013-05-27 05:57:00,48.0,47.2,30.22,ENE,68,0.0,0.0,97,0.00,,---,0.00,VWS V14.00,2013-05-27 09:57:00,
2013-05-27 06:02:00,48.0,47.2,30.22,ENE,68,0.0,0.0,97,0.00,,---,0.00,VWS V14.00,2013-05-27 10:02:00,
2013-05-27 06:07:00,48.0,47.2,30.22,ENE,68,0.0,0.0,97,0.00,,---,0.00,VWS V14.00,2013-05-27 10:07:00,
2013-05-27 06:13:00,48.0,47.2,30.22,ENE,68,0.0,0.0,97,0.00,,---,0.00,VWS V14.00,2013-05-27 10:13:00,
2013-05-27 06:18:00,48.0,47.2,30.23,ENE,68,0.0,0.0,97,0.00,,---,0.00,VWS V14.00,2013-05-27 10:18:00,
2013-05-27 06:23:00,47.8,47.0,30.23,ENE,68,0.0,0.0,97,0.00,,---,0.00,VWS V14.00,2013-05-27 10:23:00,
2013-05-27 06:28:00,47.8,47.0,30.23,ENE,68,0.0,0.0,97,0.00,,---,0.00,VWS V14.00,2013-05-27 10:28:00,
2013-05-27 06:33:00,47.8,47.0,30.23,ENE,68,0.0,0.0,97,0.00,,---,0.00,VWS V14.00,2013-05-27 10:33:00,
2013-05-27 06:38:00,47.8,47.0,30.24,ENE,68,0.0,0.0,97,0.00,,---,0.00,VWS V14.00,2013-05-27 10:38:00,
2013-05-27 06:43:00,47.8,47.0,30.24,ENE,68,0.0,0.0,97,0.00,,---,0.00,VWS V14.00,2013-05-27 10:43:00,
2013-05-27 06:48:00,48.0,47.2,30.24,ENE,68,0.0,0.0,97,0.00,,---,0.00,VWS V14.00,2013-05-27 10:48:00,
2013-05-27 06:53:00,48.0,47.2,30.24,ENE,68,0.0,0.0,97,0.00,,---,0.00,VWS V14.00,2013-05-27 10:53:00,
2013-05-27 06:58:00,48.0,47.2,30.24,ENE,68,0.0,0.0,97,0.00,,---,0.00,VWS V14.00,2013-05-27 10:58:00,
2013-05-27 07:03:00,48.2,47.7,30.24,ENE,68,0.0,0.0,98,0.00,,---,0.00,VWS V14.00,2013-05-27 11:03:00,
2013-05-27 07:08:00,48.3,47.8,30.25,ENE,68,0.0,0.0,98,0.00,,---,0.00,VWS V14.00,2013-05-27 11:08:00,
2013-05-27 07:13:00,48.5,48.0,30.25,ENE,68,0.0,0.0,98,0.00,,---,0.00,VWS V14.00,2013-05-27 11:13:00,
2013-05-27 07:18:00,48.7,48.2,30.25,ENE,68,0.0,0.0,98,0.00,,---,0.00,VWS V14.00,2013-05-27 11:18:00,
2013-05-27 07:23:00,49.1,48.6,30.26,ENE,68,0.0,0.0,98,0.00,,---,0.00,VWS V14.00,2013-05-27 11:23:00,
2013-05-27 07:28:00,49.6,49.1,30.26,ENE,68,0.0,0.0,98,0.00,,---,0.00,VWS V14.00,2013-05-27 11:28:00,
2013-05-27 07:33:00,49.8,49.3,30.26,ENE,68,0.0,0.0,98,0.00,,---,0.00,VWS V14.00,2013-05-27 11:33:00,
2013-05-27 07:38:00,50.1,49.6,30.26,ENE,68,0.0,0.0,98,0.00,,---,0.00,VWS V14.00,2013-05-27 11:38:00,
2013-05-27 07:43:00,50.5,50.0,30.26,ENE,68,0.0,0.0,98,0.00,,---,0.00,VWS V14.00,2013-05-27 11:43:00,
2013-05-27 07:48:00,50.9,50.4,30.26,ENE,68,0.0,0.0,98,0.00,,---,0.00,VWS V14.00,2013-05-27 11:48:00,
2013-05-27 07:53:00,51.4,51.1,30.26,ENE,68,0.0,0.0,99,0.00,,---,0.00,VWS V14.00,2013-05-27 11:53:00,
2013-05-27 07:58:00,51.9,51.6,30.26,ENE,68,0.0,0.0,99,0.00,,---,0.00,VWS V14.00,2013-05-27 11:58:00,
2013-05-27 08:03:00,52.5,52.2,30.26,ENE,68,0.0,0.0,99,0.00,,---,0.00,VWS V14.00,2013-05-27 12:03:00,
2013-05-27 08:08:00,52.8,52.5,30.26,ENE,68,0.0,0.0,99,0.00,,---,0.00,VWS V14.00,2013-05-27 12:08:00,
2013-05-27 08:13:00,53.7,53.2,30.26,ENE,68,0.0,0.0,98,0.00,,---,0.00,VWS V14.00,2013-05-27 12:13:00,
2013-05-27 08:18:00,54.3,53.8,30.26,ENE,68,0.0,0.0,98,0.00,,---,0.00,VWS V14.00,2013-05-27 12:18:00,
2013-05-27 08:23:00,55.0,54.2,30.26,ENE,68,0.0,0.0,97,0.00,,---,0.00,VWS V14.00,2013-05-27 12:23:00,
2013-05-27 08:28:00,56.1,55.0,30.26,ENE,68,0.0,0.0,96,0.00,,---,0.00,VWS V14.00,2013-05-27 12:28:00,
2013-05-27 08:33:00,57.3,56.2,30.25,ENE,68,0.0,0.0,96,0.00,,---,0.00,VWS V14.00,2013-05-27 12:33:00,
2013-05-27 08:38:00,58.8,57.7,30.26,ENE,68,0.0,0.0,96,0.00,,---,0.00,VWS V14.00,2013-05-27 12:38:00,
2013-05-27 08:43:00,60.6,58.6,30.25,ENE,68,0.0,0.0,93,0.00,,---,0.00,VWS V14.00,2013-05-27 12:43:00,
2013-05-27 08:48:00,61.5,58.8,30.25,East,90,0.0,0.0,91,0.00,,---,0.00,VWS V14.00,2013-05-27 12:48:00,
2013-05-27 08:53:00,62.0,58.7,30.25,East,90,0.0,0.0,89,0.00,,---,0.00,VWS V14.00,2013-05-27 12:53:00,
2013-05-27 08:58:00,62.6,58.4,30.25,ENE,68,0.0,0.4,86,0.00,,---,0.00,VWS V14.00,2013-05-27 12:58:00,
2013-05-27 09:03:00,62.7,58.1,30.25,ENE,68,0.0,0.0,85,0.00,,---,0.00,VWS V14.00,2013-05-27 13:03:00,
2013-05-27 09:08:00,63.1,58.2,30.25,ENE,68,0.0,0.0,84,0.00,,---,0.00,VWS V14.00,2013-05-27 13:08:00,
2013-05-27 09:13:00,64.0,59.4,30.25,East,90,0.0,0.0,85,0.00,,---,0.00,VWS V14.00,2013-05-27 13:13:00,
2013-05-27 09:18:00,64.9,60.3,30.25,ESE,112,0.0,0.0,85,0.00,,---,0.00,VWS V14.00,2013-05-27 13:18:00,
2013-05-27 09:23:00,66.0,60.7,30.25,East,90,0.0,0.0,83,0.00,,---,0.00,VWS V14.00,2013-05-27 13:23:00,
2013-05-27 09:28:00,66.7,60.7,30.26,NE,45,0.0,0.0,81,0.00,,---,0.00,VWS V14.00,2013-05-27 13:28:00,
2013-05-27 09:33:00,67.1,61.1,30.25,ESE,112,0.0,0.6,81,0.00,,---,0.00,VWS V14.00,2013-05-27 13:33:00,
2013-05-27 09:38:00,67.6,60.9,30.25,NE,45,1.1,1.1,79,0.00,,---,0.00,VWS V14.00,2013-05-27 13:38:00,
2013-05-27 09:43:00,68.3,61.9,30.25,ESE,112,0.0,0.0,80,0.00,,---,0.00,VWS V14.00,2013-05-27 13:43:00,
2013-05-27 09:48:00,69.0,62.2,30.25,NE,45,0.0,0.0,79,0.00,,---,0.00,VWS V14.00,2013-05-27 13:48:00,
2013-05-27 09:53:00,69.8,62.6,30.25,ESE,112,0.0,0.0,78,0.00,,---,0.00,VWS V14.00,2013-05-27 13:53:00,
2013-05-27 09:58:00,70.5,63.0,30.24,ENE,68,0.0,1.5,77,0.00,,---,0.00,VWS V14.00,2013-05-27 13:58:00,
2013-05-27 10:03:00,71.2,63.3,30.24,SW,225,0.0,3.8,76,0.00,,---,0.00,VWS V14.00,2013-05-27 14:03:00,
2013-05-27 10:08:00,72.1,63.8,30.24,SSW,202,3.3,3.8,75,0.00,,---,0.00,VWS V14.00,2013-05-27 14:08:00,
2013-05-27 10:14:00,72.6,63.8,30.23,ESE,112,0.8,0.8,74,0.00,,---,0.00,VWS V14.00,2013-05-27 14:14:00,
2013-05-27 10:19:00,73.0,63.8,30.23,SSW,202,0.0,1.5,73,0.00,,---,0.00,VWS V14.00,2013-05-27 14:19:00,
2013-05-27 10:24:00,73.2,63.6,30.23,ESE,112,0.0,0.0,72,0.00,,---,0.00,VWS V14.00,2013-05-27 14:24:00,
2013-05-27 10:29:00,73.5,64.3,30.23,ENE,68,0.8,0.8,73,0.00,,---,0.00,VWS V14.00,2013-05-27 14:29:00,
2013-05-27 10:34:00,73.9,63.9,30.23,SSW,202,0.0,0.0,71,0.00,,---,0.00,VWS V14.00,2013-05-27 14:34:00,
2013-05-27 10:39:00,74.3,64.3,30.23,East,90,0.0,0.0,71,0.00,,---,0.00,VWS V14.00,2013-05-27 14:39:00,
2013-05-27 10:44:00,74.4,63.6,30.23,ENE,68,0.0,0.0,69,0.00,,---,0.00,VWS V14.00,2013-05-27 14:44:00,
2013-05-27 10:49:00,74.8,64.0,30.23,SSE,158,0.6,0.6,69,0.00,,---,0.00,VWS V14.00,2013-05-27 14:49:00,
2013-05-27 10:54:00,75.3,64.4,30.23,ESE,112,0.0,0.0,69,0.00,,---,0.00,VWS V14.00,2013-05-27 14:54:00,
2013-05-27 10:59:00,75.9,64.6,30.23,WSW,248,0.4,0.4,68,0.00,,---,0.00,VWS V14.00,2013-05-27 14:59:00,
2013-05-27 11:04:00,76.6,64.8,30.23,SSW,202,2.9,2.9,67,0.00,,---,0.00,VWS V14.00,2013-05-27 15:04:00,
2013-05-27 11:09:00,76.6,64.4,30.23,NW,315,0.0,2.9,66,0.00,,---,0.00,VWS V14.00,2013-05-27 15:09:00,
2013-05-27 11:14:00,76.4,63.8,30.22,SSW,202,1.3,1.3,65,0.00,,---,0.00,VWS V14.00,2013-05-27 15:14:00,
2013-05-27 11:19:00,76.4,64.2,30.22,SE,135,3.1,3.1,66,0.00,,---,0.00,VWS V14.00,2013-05-27 15:19:00,
2013-05-27 11:24:00,76.6,64.0,30.23,SSW,202,0.0,0.0,65,0.00,,---,0.00,VWS V14.00,2013-05-27 15:24:00,
2013-05-27 11:29:00,76.6,64.4,30.22,North,0,2.4,2.6,66,0.00,,---,0.00,VWS V14.00,2013-05-27 15:29:00,
2013-05-27 11:34:00,77.1,64.4,30.22,SSW,202,2.2,5.5,65,0.00,,---,0.00,VWS V14.00,2013-05-27 15:34:00,
2013-05-27 11:39:00,77.1,64.4,30.23,ESE,112,0.0,5.5,65,0.00,,---,0.00,VWS V14.00,2013-05-27 15:39:00,
2013-05-27 11:44:00,77.3,64.2,30.23,ENE,68,0.0,0.0,64,0.00,,---,0.00,VWS V14.00,2013-05-27 15:44:00,
2013-05-27 11:49:00,77.3,64.2,30.23,SE,135,1.7,1.7,64,0.00,,---,0.00,VWS V14.00,2013-05-27 15:49:00,
2013-05-27 11:54:00,77.1,64.0,30.23,WSW,248,0.0,0.0,64,0.00,,---,0.00,VWS V14.00,2013-05-27 15:54:00,
2013-05-27 11:59:00,77.5,64.4,30.22,NNW,338,0.0,8.7,64,0.00,,---,0.00,VWS V14.00,2013-05-27 15:59:00,
2013-05-27 12:04:00,77.7,64.6,30.22,NNW,338,0.0,4.9,64,0.00,,---,0.00,VWS V14.00,2013-05-27 16:04:00,
2013-05-27 12:09:00,78.0,64.8,30.23,ESE,112,1.1,4.9,64,0.00,,---,0.00,VWS V14.00,2013-05-27 16:09:00,
2013-05-27 12:14:00,78.6,65.4,30.22,SW,225,0.0,4.4,64,0.00,,---,0.00,VWS V14.00,2013-05-27 16:14:00,
2013-05-27 12:19:00,78.6,65.0,30.23,WSW,248,1.3,4.4,63,0.00,,---,0.00,VWS V14.00,2013-05-27 16:19:00,
2013-05-27 12:24:00,78.9,65.7,30.22,ESE,112,0.0,0.6,64,0.00,,---,0.00,VWS V14.00,2013-05-27 16:24:00,
2013-05-27 12:29:00,78.9,65.2,30.22,ESE,112,6.2,6.2,63,0.00,,---,0.00,VWS V14.00,2013-05-27 16:29:00,
2013-05-27 12:35:00,78.6,65.0,30.22,SSE,158,0.0,6.2,63,0.00,,---,0.00,VWS V14.00,2013-05-27 16:35:00,
2013-05-27 12:40:00,78.6,65.0,30.22,WSW,248,2.0,6.2,63,0.00,,---,0.00,VWS V14.00,2013-05-27 16:40:00,
2013-05-27 12:45:00,78.9,66.2,30.22,ENE,68,0.0,2.0,65,0.00,,---,0.00,VWS V14.00,2013-05-27 16:45:00,
2013-05-27 12:50:00,78.9,65.7,30.22,WNW,292,0.0,2.4,64,0.00,,---,0.00,VWS V14.00,2013-05-27 16:50:00,
2013-05-27 12:55:00,78.9,65.7,30.22,ESE,112,0.0,0.0,64,0.00,,---,0.00,VWS V14.00,2013-05-27 16:55:00,
2013-05-27 13:00:00,78.6,65.4,30.22,SSE,158,0.0,2.6,64,0.00,,---,0.00,VWS V14.00,2013-05-27 17:00:00,
2013-05-27 13:05:00,78.9,65.2,30.21,WSW,248,1.1,1.1,63,0.00,,---,0.00,VWS V14.00,2013-05-27 17:05:00,
2013-05-27 13:10:00,79.1,65.0,30.21,North,0,0.6,5.8,62,0.00,,---,0.00,VWS V14.00,2013-05-27 17:10:00,
2013-05-27 13:15:00,79.1,65.4,30.21,WSW,248,6.0,6.0,63,0.00,,---,0.00,VWS V14.00,2013-05-27 17:15:00,
2013-05-27 13:20:00,79.5,65.8,30.21,SW,225,0.0,6.0,63,0.00,,---,0.00,VWS V14.00,2013-05-27 17:20:00,
2013-05-27 13:25:00,79.3,65.6,30.21,SSW,202,2.2,2.2,63,0.00,,---,0.00,VWS V14.00,2013-05-27 17:25:00,
2013-05-27 13:30:00,79.3,65.6,30.21,South,180,0.0,2.2,63,0.00,,---,0.00,VWS V14.00,2013-05-27 17:30:00,
2013-05-27 13:35:00,79.5,65.8,30.21,ENE,68,0.0,0.0,63,0.00,,---,0.00,VWS V14.00,2013-05-27 17:35:00,
2013-05-27 13:40:00,79.5,66.3,30.21,SE,135,0.0,0.0,64,0.00,,---,0.00,VWS V14.00,2013-05-27 17:40:00,
2013-05-27 13:45:00,79.8,66.6,30.20,NE,45,0.0,0.0,64,0.00,,---,0.00,VWS V14.00,2013-05-27 17:45:00,
2013-05-27 13:50:00,80.2,66.9,30.20,South,180,1.5,1.5,64,0.00,,---,0.00,VWS V14.00,2013-05-27 17:50:00,
2013-05-27 13:55:00,80.4,66.7,30.20,SW,225,1.7,1.7,63,0.00,,---,0.00,VWS V14.00,2013-05-27 17:55:00,
2013-05-27 14:00:00,80.2,66.5,30.20,SE,135,0.0,1.7,63,0.00,,---,0.00,VWS V14.00,2013-05-27 18:00:00,
2013-05-27 14:05:00,80.0,66.3,30.21,ENE,68,0.0,2.4,63,0.00,,---,0.00,VWS V14.00,2013-05-27 18:05:00,
2013-05-27 14:10:00,79.5,65.3,30.21,South,180,1.1,6.9,62,0.00,,---,0.00,VWS V14.00,2013-05-27 18:10:00,
2013-05-27 14:15:00,79.5,66.3,30.20,West,270,0.0,1.1,64,0.00,,---,0.00,VWS V14.00,2013-05-27 18:15:00,
2013-05-27 14:20:00,79.3,65.6,30.20,NE,45,3.1,3.1,63,0.00,,---,0.00,VWS V14.00,2013-05-27 18:20:00,
2013-05-27 14:25:00,79.5,65.8,30.20,SW,225,2.0,5.1,63,0.00,,---,0.00,VWS V14.00,2013-05-27 18:25:00,
2013-05-27 14:30:00,79.5,65.8,30.20,ENE,68,2.6,5.1,63,0.00,,---,0.00,VWS V14.00,2013-05-27 18:30:00,
2013-05-27 14:35:00,79.3,65.6,30.19,NNE,22,0.0,4.6,63,0.00,,---,0.00,VWS V14.00,2013-05-27 18:35:00,
2013-05-27 14:40:00,79.5,65.8,30.19,East,90,0.0,4.6,63,0.00,,---,0.00,VWS V14.00,2013-05-27 18:40:00,
2013-05-27 14:45:00,79.3,65.6,30.19,South,180,2.2,2.6,63,0.00,,---,0.00,VWS V14.00,2013-05-27 18:45:00,
2013-05-27 14:50:00,79.3,65.6,30.18,SSW,202,0.0,3.1,63,0.00,,---,0.00,VWS V14.00,2013-05-27 18:50:00,
2013-05-27 14:55:00,79.5,65.8,30.18,South,180,0.8,1.3,63,0.00,,---,0.00,VWS V14.00,2013-05-27 18:55:00,
2013-05-27 15:00:00,79.3,65.2,30.18,ENE,68,1.5,1.5,62,0.00,,---,0.00,VWS V14.00,2013-05-27 19:00:00,
2013-05-27 15:05:00,78.9,64.8,30.18,East,90,0.8,1.5,62,0.00,,---,0.00,VWS V14.00,2013-05-27 19:05:00,
2013-05-27 15:10:00,78.6,65.0,30.18,SE,135,0.2,2.4,63,0.00,,---,0.00,VWS V14.00,2013-05-27 19:10:00,
2013-05-27 15:15:00,78.6,65.0,30.17,East,90,1.1,1.1,63,0.00,,---,0.00,VWS V14.00,2013-05-27 19:15:00,
2013-05-27 15:20:00,78.6,65.0,30.17,WSW,248,0.0,4.0,63,0.00,,---,0.00,VWS V14.00,2013-05-27 19:20:00,
2013-05-27 15:25:00,78.2,64.6,30.17,NNW,338,0.8,3.1,63,0.00,,---,0.00,VWS V14.00,2013-05-27 19:25:00,
2013-05-27 15:30:00,77.9,64.3,30.17,SSE,158,1.1,3.1,63,0.00,,---,0.00,VWS V14.00,2013-05-27 19:30:00,
2013-05-27 15:35:00,77.9,64.3,30.17,SW,225,6.7,6.7,63,0.00,,---,0.00,VWS V14.00,2013-05-27 19:35:00,
2013-05-27 15:40:00,77.5,63.9,30.17,NE,45,0.8,6.7,63,0.00,,---,0.00,VWS V14.00,2013-05-27 19:40:00,
2013-05-27 15:45:00,77.5,64.4,30.17,WSW,248,0.0,3.3,64,0.00,,---,0.00,VWS V14.00,2013-05-27 19:45:00,
2013-05-27 15:50:00,77.5,63.9,30.17,SW,225,6.9,6.9,63,0.00,,---,0.00,VWS V14.00,2013-05-27 19:50:00,
2013-05-27 15:55:00,77.3,63.7,30.17,NE,45,2.0,5.8,63,0.00,,---,0.00,VWS V14.00,2013-05-27 19:55:00,
2013-05-27 16:00:00,77.1,63.1,30.17,SW,225,0.0,5.8,62,0.00,,---,0.00,VWS V14.00,2013-05-27 20:00:00,
2013-05-27 16:05:00,77.1,63.5,30.17,SSE,158,0.0,0.0,63,0.00,,---,0.00,VWS V14.00,2013-05-27 20:05:00,
2013-05-27 16:10:00,77.1,63.5,30.17,NE,45,0.0,0.6,63,0.00,,---,0.00,VWS V14.00,2013-05-27 20:10:00,
2013-05-27 16:15:00,77.0,63.5,30.16,WSW,248,2.2,7.8,63,0.00,,---,0.00,VWS V14.00,2013-05-27 20:15:00,
2013-05-27 16:20:00,76.8,63.3,30.16,SSE,158,0.0,7.8,63,0.00,,---,0.00,VWS V14.00,2013-05-27 20:20:00,
2013-05-27 16:25:00,76.6,63.5,30.16,NE,45,0.0,0.8,64,0.00,,---,0.00,VWS V14.00,2013-05-27 20:25:00,
2013-05-27 16:30:00,76.6,63.5,30.16,ESE,112,0.0,0.8,64,0.00,,---,0.00,VWS V14.00,2013-05-27 20:30:00,
2013-05-27 16:35:00,76.8,63.7,30.16,NE,45,0.0,0.0,64,0.00,,---,0.00,VWS V14.00,2013-05-27 20:35:00,
2013-05-27 16:40:00,76.6,63.1,30.16,SSW,202,4.4,6.7,63,0.00,,---,0.00,VWS V14.00,2013-05-27 20:40:00,
2013-05-27 16:45:00,76.6,63.5,30.16,South,180,4.9,4.9,64,0.00,,---,0.00,VWS V14.00,2013-05-27 20:45:00,
2013-05-27 16:50:00,76.4,63.3,30.16,WSW,248,0.0,4.9,64,0.00,,---,0.00,VWS V14.00,2013-05-27 20:50:00,
2013-05-27 16:55:00,76.4,63.3,30.16,West,270,3.3,3.3,64,0.00,,---,0.00,VWS V14.00,2013-05-27 20:55:00,
2013-05-27 17:00:00,76.2,63.1,30.16,West,270,0.0,0.0,64,0.00,,---,0.00,VWS V14.00,2013-05-27 21:00:00,
2013-05-27 17:05:00,76.2,63.6,30.16,WSW,248,0.4,0.4,65,0.00,,---,0.00,VWS V14.00,2013-05-27 21:05:00,
2013-05-27 17:10:00,76.2,63.6,30.16,WSW,248,0.0,0.0,65,0.00,,---,0.00,VWS V14.00,2013-05-27 21:10:00,
2013-05-27 17:15:00,76.2,64.0,30.16,SW,225,3.5,3.5,66,0.00,,---,0.00,VWS V14.00,2013-05-27 21:15:00,
2013-05-27 17:20:00,76.1,63.5,30.16,SW,225,0.0,3.5,65,0.00,,---,0.00,VWS V14.00,2013-05-27 21:20:00,
2013-05-27 17:25:00,75.9,63.3,30.16,West,270,0.0,0.0,65,0.00,,---,0.00,VWS V14.00,2013-05-27 21:25:00,
2013-05-27 17:30:00,75.9,62.9,30.16,SSW,202,2.9,2.9,64,0.00,,---,0.00,VWS V14.00,2013-05-27 21:30:00,
2013-05-27 17:35:00,75.7,63.1,30.16,SE,135,0.0,2.9,65,0.00,,---,0.00,VWS V14.00,2013-05-27 21:35:00,
2013-05-27 17:40:00,75.7,63.1,30.16,South,180,0.0,0.0,65,0.00,,---,0.00,VWS V14.00,2013-05-27 21:40:00,
2013-05-27 17:45:00,75.7,63.1,30.16,SSW,202,1.3,4.4,65,0.00,,---,0.00,VWS V14.00,2013-05-27 21:45:00,
2013-05-27 17:50:00,75.5,62.9,30.16,WSW,248,0.0,0.0,65,0.00,,---,0.00,VWS V14.00,2013-05-27 21:50:00,
2013-05-27 17:55:00,75.3,62.7,30.16,ENE,68,0.0,1.3,65,0.00,,---,0.00,VWS V14.00,2013-05-27 21:55:00,
2013-05-27 18:00:00,75.3,62.7,30.16,SW,225,0.0,2.2,65,0.00,,---,0.00,VWS V14.00,2013-05-27 22:00:00,
2013-05-27 18:05:00,75.3,63.2,30.16,SSW,202,0.0,2.0,66,0.00,,---,0.00,VWS V14.00,2013-05-27 22:05:00,
2013-05-27 18:10:00,75.3,63.2,30.16,SSE,158,0.0,0.0,66,0.00,,---,0.00,VWS V14.00,2013-05-27 22:10:00,
2013-05-27 18:15:00,75.3,63.2,30.16,SSE,158,0.0,0.0,66,0.00,,---,0.00,VWS V14.00,2013-05-27 22:15:00,
2013-05-27 18:20:00,75.2,63.1,30.15,SSW,202,0.6,0.6,66,0.00,,---,0.00,VWS V14.00,2013-05-27 22:20:00,
2013-05-27 18:25:00,75.0,63.3,30.16,WSW,248,0.0,4.0,67,0.00,,---,0.00,VWS V14.00,2013-05-27 22:25:00,
2013-05-27 18:31:00,75.0,63.3,30.15,West,270,0.0,0.0,67,0.00,,---,0.00,VWS V14.00,2013-05-27 22:31:00,
2013-05-27 18:36:00,75.0,63.3,30.16,SSE,158,0.8,0.8,67,0.00,,---,0.00,VWS V14.00,2013-05-27 22:36:00,
2013-05-27 18:41:00,74.8,63.1,30.16,SSE,158,0.0,0.0,67,0.00,,---,0.00,VWS V14.00,2013-05-27 22:41:00,
2013-05-27 18:46:00,74.8,63.1,30.16,ESE,112,0.0,0.8,67,0.00,,---,0.00,VWS V14.00,2013-05-27 22:46:00,
2013-05-27 18:51:00,74.3,62.6,30.16,South,180,4.0,4.0,67,0.00,,---,0.00,VWS V14.00,2013-05-27 22:51:00,
2013-05-27 18:56:00,74.3,62.6,30.16,NE,45,0.0,4.0,67,0.00,,---,0.00,VWS V14.00,2013-05-27 22:56:00,
2013-05-27 19:01:00,74.1,62.5,30.16,SSE,158,0.0,0.0,67,0.00,,---,0.00,VWS V14.00,2013-05-27 23:01:00,
2013-05-27 19:06:00,73.9,62.7,30.16,SSE,158,1.5,1.5,68,0.00,,---,0.00,VWS V14.00,2013-05-27 23:06:00,
2013-05-27 19:11:00,73.9,62.7,30.16,West,270,1.7,1.7,68,0.00,,---,0.00,VWS V14.00,2013-05-27 23:11:00,
2013-05-27 19:16:00,73.5,62.3,30.16,SSW,202,0.0,3.8,68,0.00,,---,0.00,VWS V14.00,2013-05-27 23:16:00,
2013-05-27 19:21:00,73.5,62.3,30.16,North,0,0.0,0.0,68,0.00,,---,0.00,VWS V14.00,2013-05-27 23:21:00,
2013-05-27 19:26:00,73.2,62.4,30.16,SW,225,0.0,0.0,69,0.00,,---,0.00,VWS V14.00,2013-05-27 23:26:00,
2013-05-27 19:31:00,73.0,61.8,30.16,SW,225,0.0,0.0,68,0.00,,---,0.00,VWS V14.00,2013-05-27 23:31:00,
2013-05-27 19:36:00,72.8,62.0,30.16,East,90,1.1,1.1,69,0.00,,---,0.00,VWS V14.00,2013-05-27 23:36:00,
2013-05-27 19:41:00,72.6,61.9,30.16,East,90,0.0,0.0,69,0.00,,---,0.00,VWS V14.00,2013-05-27 23:41:00,
2013-05-27 19:46:00,72.5,61.8,30.16,SSW,202,0.0,0.0,69,0.00,,---,0.00,VWS V14.00,2013-05-27 23:46:00,
2013-05-27 19:51:00,72.1,61.8,30.16,SSW,202,0.0,0.0,70,0.00,,---,0.00,VWS V14.00,2013-05-27 23:51:00,
2013-05-27 19:56:00,72.1,61.8,30.16,ESE,112,0.0,0.0,70,0.00,,---,0.00,VWS V14.00,2013-05-27 23:56:00,
2013-05-27 20:01:00,71.7,61.4,30.16,SE,135,0.0,0.0,70,0.00,,---,0.00,VWS V14.00,2013-05-28 00:01:00,
2013-05-27 20:06:00,71.6,61.3,30.16,SSW,202,0.0,0.0,70,0.00,,---,0.00,VWS V14.00,2013-05-28 00:06:00,
2013-05-27 20:11:00,71.4,61.5,30.16,SSE,158,0.0,0.0,71,0.00,,---,0.00,VWS V14.00,2013-05-28 00:11:00,
2013-05-27 20:16:00,71.0,61.1,30.16,SW,225,0.0,0.0,71,0.00,,---,0.00,VWS V14.00,2013-05-28 00:16:00,
2013-05-27 20:21:00,70.7,60.8,30.16,SW,225,0.0,0.0,71,0.00,,---,0.00,VWS V14.00,2013-05-28 00:21:00,
2013-05-27 20:26:00,70.1,60.7,30.16,SW,225,0.0,0.0,72,0.00,,---,0.00,VWS V14.00,2013-05-28 00:26:00,
2013-05-27 20:31:00,69.6,60.6,30.16,SW,225,0.0,0.0,73,0.00,,---,0.00,VWS V14.00,2013-05-28 00:31:00,
2013-05-27 20:36:00,69.4,60.4,30.15,SW,225,0.0,0.0,73,0.00,,---,0.00,VWS V14.00,2013-05-28 00:36:00,
2013-05-27 20:41:00,68.9,60.3,30.15,SW,225,0.0,0.0,74,0.00,,---,0.00,VWS V14.00,2013-05-28 00:41:00,
2013-05-27 20:46:00,68.5,59.9,30.15,SW,225,0.0,0.0,74,0.00,,---,0.00,VWS V14.00,2013-05-28 00:46:00,
2013-05-27 20:51:00,67.8,59.6,30.16,SW,225,0.0,0.0,75,0.00,,---,0.00,VWS V14.00,2013-05-28 00:51:00,
2013-05-27 20:56:00,67.2,59.4,30.15,SW,225,0.0,0.0,76,0.00,,---,0.00,VWS V14.00,2013-05-28 00:56:00,
2013-05-27 21:01:00,66.7,59.3,30.16,SW,225,0.0,0.0,77,0.00,,---,0.00,VWS V14.00,2013-05-28 01:01:00,
2013-05-27 21:06:00,66.3,58.9,30.16,SW,225,0.0,0.0,77,0.00,,---,0.00,VWS V14.00,2013-05-28 01:06:00,
2013-05-27 21:11:00,65.8,58.8,30.16,SW,225,0.0,0.0,78,0.00,,---,0.00,VWS V14.00,2013-05-28 01:11:00,
2013-05-27 21:16:00,65.4,58.7,30.16,SW,225,0.0,0.0,79,0.00,,---,0.00,VWS V14.00,2013-05-28 01:16:00,
2013-05-27 21:21:00,65.1,58.4,30.16,SW,225,0.0,0.0,79,0.00,,---,0.00,VWS V14.00,2013-05-28 01:21:00,
2013-05-27 21:26:00,64.5,58.2,30.16,SW,225,0.0,0.0,80,0.00,,---,0.00,VWS V14.00,2013-05-28 01:26:00,
2013-05-27 21:31:00,64.2,58.3,30.17,SW,225,0.0,0.0,81,0.00,,---,0.00,VWS V14.00,2013-05-28 01:31:00,
2013-05-27 21:36:00,64.0,58.1,30.17,SW,225,0.0,0.0,81,0.00,,---,0.00,VWS V14.00,2013-05-28 01:36:00,
2013-05-27 21:41:00,63.6,58.0,30.17,SW,225,0.0,0.0,82,0.00,,---,0.00,VWS V14.00,2013-05-28 01:41:00,
2013-05-27 21:46:00,63.3,57.7,30.17,SW,225,0.0,0.0,82,0.00,,---,0.00,VWS V14.00,2013-05-28 01:46:00,
2013-05-27 21:51:00,63.1,57.9,30.17,SW,225,0.0,0.0,83,0.00,,---,0.00,VWS V14.00,2013-05-28 01:51:00,
2013-05-27 21:57:00,62.7,57.5,30.17,SW,225,0.0,0.0,83,0.00,,---,0.00,VWS V14.00,2013-05-28 01:57:00,
2013-05-27 22:02:00,62.4,57.5,30.17,SW,225,0.0,0.0,84,0.00,,---,0.00,VWS V14.00,2013-05-28 02:02:00,
2013-05-27 22:07:00,62.4,57.5,30.18,SW,225,0.0,0.0,84,0.00,,---,0.00,VWS V14.00,2013-05-28 02:07:00,
2013-05-27 22:12:00,62.0,57.1,30.18,SW,225,0.0,0.0,84,0.00,,---,0.00,VWS V14.00,2013-05-28 02:12:00,
2013-05-27 22:17:00,61.8,57.2,30.18,SW,225,0.0,0.0,85,0.00,,---,0.00,VWS V14.00,2013-05-28 02:17:00,
2013-05-27 22:22:00,61.7,57.2,30.18,SW,225,0.0,0.0,85,0.00,,---,0.00,VWS V14.00,2013-05-28 02:22:00,
2013-05-27 22:27:00,61.5,57.3,30.18,SW,225,0.0,0.0,86,0.00,,---,0.00,VWS V14.00,2013-05-28 02:27:00,
2013-05-27 22:32:00,61.3,57.1,30.18,SW,225,0.0,0.0,86,0.00,,---,0.00,VWS V14.00,2013-05-28 02:32:00,
2013-05-27 22:37:00,61.1,56.9,30.18,SW,225,0.0,0.0,86,0.00,,---,0.00,VWS V14.00,2013-05-28 02:37:00,
2013-05-27 22:42:00,60.9,57.0,30.19,SW,225,0.0,0.0,87,0.00,,---,0.00,VWS V14.00,2013-05-28 02:42:00,
2013-05-27 22:47:00,60.8,56.9,30.19,SW,225,0.0,0.0,87,0.00,,---,0.00,VWS V14.00,2013-05-28 02:47:00,
2013-05-27 22:52:00,60.6,56.7,30.19,SW,225,0.0,0.0,87,0.00,,---,0.00,VWS V14.00,2013-05-28 02:52:00,
2013-05-27 22:57:00,60.6,56.7,30.19,SW,225,0.0,0.0,87,0.00,,---,0.00,VWS V14.00,2013-05-28 02:57:00,
2013-05-27 23:02:00,60.4,56.8,30.19,SW,225,0.0,0.0,88,0.00,,---,0.00,VWS V14.00,2013-05-28 03:02:00,
2013-05-27 23:07:00,60.4,56.8,30.19,SW,225,0.0,0.0,88,0.00,,---,0.00,VWS V14.00,2013-05-28 03:07:00,
2013-05-27 23:12:00,60.0,56.4,30.19,SW,225,0.0,0.0,88,0.00,,---,0.00,VWS V14.00,2013-05-28 03:12:00,
2013-05-27 23:17:00,60.0,56.8,30.19,SW,225,0.0,0.0,89,0.00,,---,0.00,VWS V14.00,2013-05-28 03:17:00,
2013-05-27 23:22:00,60.0,56.8,30.19,SW,225,0.0,0.0,89,0.00,,---,0.00,VWS V14.00,2013-05-28 03:22:00,
2013-05-27 23:27:00,60.0,56.8,30.19,SW,225,0.0,0.0,89,0.00,,---,0.00,VWS V14.00,2013-05-28 03:27:00,
2013-05-27 23:32:00,59.9,56.7,30.19,SW,225,0.0,0.0,89,0.00,,---,0.00,VWS V14.00,2013-05-28 03:32:00,
2013-05-27 23:37:00,59.9,56.7,30.19,SW,225,0.0,0.0,89,0.00,,---,0.00,VWS V14.00,2013-05-28 03:37:00,
2013-05-27 23:42:00,59.7,56.5,30.19,SW,225,0.0,0.0,89,0.00,,---,0.00,VWS V14.00,2013-05-28 03:42:00,
2013-05-27 23:47:00,59.5,56.3,30.19,SW,225,0.0,0.0,89,0.00,,---,0.00,VWS V14.00,2013-05-28 03:47:00,
2013-05-27 23:52:00,59.5,56.6,30.19,SW,225,0.0,0.0,90,0.00,,---,0.00,VWS V14.00,2013-05-28 03:52:00,
2013-05-27 23:57:00,59.1,56.2,30.19,SW,225,0.0,0.0,90,0.00,,---,0.00,VWS V14.00,2013-05-28 03:57:00,